N960 KSAN-KSMO

Flight info

Callsign N960
Flight time 0h 31m
Altitude 16000
Route SANP10
Aircraft C25C/M-BGS/L

Departure

Time 2026-04-26 02:18
Airport San Diego International Airport (KSAN)

Arrival

Time 2026-04-26 02:49
Airport Santa Monica Municipal Airport (KSMO)
Time Latitude Longitude Altitude Speed Heading
2026-04-26 01:41 32.73419 -117.17885 20 ft 0 kts 18°
2026-04-26 02:06 32.73412 -117.17888 20 ft 2 kts 18°
2026-04-26 02:06 32.73398 -117.17897 20 ft 2 kts 58°
2026-04-26 02:06 32.73395 -117.17915 20 ft 2 kts 114°
2026-04-26 02:07 32.73402 -117.17924 20 ft 0 kts 153°
2026-04-26 02:11 32.73394 -117.17925 21 ft 4 kts 199°
2026-04-26 02:11 32.73334 -117.17956 19 ft 15 kts 196°
2026-04-26 02:11 32.73224 -117.17916 16 ft 24 kts 117°
2026-04-26 02:11 32.73190 -117.17800 17 ft 11 kts 105°
2026-04-26 02:12 32.73171 -117.17721 17 ft 2 kts 106°
2026-04-26 02:12 32.73171 -117.17719 17 ft 0 kts 106°
2026-04-26 02:12 32.73157 -117.17662 17 ft 12 kts 107°
2026-04-26 02:12 32.73129 -117.17583 16 ft 0 kts 133°
2026-04-26 02:15 32.73121 -117.17575 16 ft 6 kts 138°
2026-04-26 02:15 32.73102 -117.17556 16 ft 0 kts 144°
2026-04-26 02:17 32.73070 -117.17532 16 ft 8 kts 153°
2026-04-26 02:17 32.73024 -117.17542 17 ft 7 kts 235°
2026-04-26 02:17 32.73020 -117.17586 16 ft 0 kts 281°
2026-04-26 02:18 32.73058 -117.17743 15 ft 71 kts 287°
2026-04-26 02:18 32.73291 -117.18702 283 ft 153 kts 286°
2026-04-26 02:18 32.73624 -117.20062 943 ft 197 kts 285°
2026-04-26 02:18 32.74092 -117.21770 1653 ft 226 kts 287°
2026-04-26 02:19 32.74603 -117.23441 2703 ft 205 kts 290°
2026-04-26 02:19 32.75160 -117.24990 3298 ft 209 kts 290°
2026-04-26 02:19 32.75732 -117.26662 3977 ft 228 kts 290°
2026-04-26 02:19 32.76361 -117.28432 4868 ft 233 kts 290°
2026-04-26 02:20 32.76941 -117.30217 6130 ft 231 kts 287°
2026-04-26 02:20 32.77342 -117.32042 7965 ft 229 kts 279°
2026-04-26 02:20 32.77613 -117.33954 9579 ft 242 kts 274°
2026-04-26 02:20 32.78026 -117.35961 10982 ft 254 kts 286°
2026-04-26 02:21 32.78819 -117.37750 12377 ft 239 kts 297°
2026-04-26 02:21 32.79882 -117.39320 12533 ft 257 kts 307°
2026-04-26 02:21 32.81331 -117.40763 11181 ft 290 kts 319°
2026-04-26 02:21 32.82866 -117.42226 10803 ft 271 kts 311°
2026-04-26 02:22 32.84073 -117.43761 10735 ft 245 kts 306°
2026-04-26 02:22 32.85033 -117.45348 10615 ft 232 kts 296°
2026-04-26 02:22 32.85919 -117.46962 10493 ft 235 kts 302°
2026-04-26 02:22 32.87007 -117.48454 10309 ft 243 kts 309°
2026-04-26 02:23 32.88208 -117.49906 10100 ft 248 kts 309°
2026-04-26 02:23 32.89399 -117.51375 10040 ft 245 kts 309°
2026-04-26 02:23 32.90557 -117.52847 10012 ft 242 kts 308°
2026-04-26 02:23 32.91699 -117.54301 9992 ft 239 kts 308°
2026-04-26 02:24 32.92828 -117.55738 9988 ft 236 kts 308°
2026-04-26 02:24 32.93947 -117.57152 9991 ft 234 kts 308°
2026-04-26 02:24 32.95040 -117.58540 9986 ft 232 kts 308°
2026-04-26 02:24 32.96138 -117.59936 9984 ft 230 kts 308°
2026-04-26 02:25 32.97233 -117.61323 9980 ft 229 kts 308°
2026-04-26 02:25 32.98346 -117.62747 9985 ft 244 kts 309°
2026-04-26 02:25 32.99550 -117.64278 9995 ft 261 kts 309°
2026-04-26 02:25 33.00837 -117.65917 9991 ft 285 kts 309°
2026-04-26 02:26 33.02264 -117.67733 9988 ft 315 kts 309°
2026-04-26 02:26 33.03802 -117.69690 9988 ft 329 kts 310°
2026-04-26 02:26 33.05388 -117.71705 9990 ft 336 kts 310°
2026-04-26 02:26 33.07057 -117.73678 9987 ft 342 kts 316°
2026-04-26 02:27 33.08903 -117.75495 9984 ft 346 kts 316°
2026-04-26 02:27 33.10722 -117.77358 9984 ft 341 kts 316°
2026-04-26 02:27 33.12506 -117.79188 9984 ft 335 kts 316°
2026-04-26 02:27 33.14266 -117.80979 9983 ft 331 kts 316°
2026-04-26 02:28 33.16012 -117.82749 9987 ft 328 kts 316°
2026-04-26 02:28 33.17750 -117.84517 9979 ft 327 kts 316°
2026-04-26 02:28 33.19620 -117.86051 10015 ft 331 kts 332°
2026-04-26 02:28 33.21855 -117.86833 10022 ft 337 kts 343°
2026-04-26 02:29 33.24157 -117.87433 10021 ft 340 kts 345°
2026-04-26 02:29 33.26492 -117.87954 10023 ft 342 kts 345°
2026-04-26 02:29 33.28828 -117.88522 10024 ft 343 kts 344°
2026-04-26 02:29 33.31169 -117.89118 10029 ft 344 kts 344°
2026-04-26 02:30 33.33510 -117.89714 10030 ft 345 kts 344°
2026-04-26 02:30 33.35861 -117.90292 10030 ft 346 kts 344°
2026-04-26 02:30 33.38215 -117.90882 10031 ft 345 kts 343°
2026-04-26 02:30 33.40500 -117.91712 10034 ft 343 kts 338°
2026-04-26 02:31 33.42796 -117.92541 10030 ft 345 kts 340°
2026-04-26 02:31 33.45036 -117.93327 10031 ft 330 kts 339°
2026-04-26 02:31 33.47190 -117.94098 10027 ft 309 kts 339°
2026-04-26 02:31 33.49186 -117.94837 10020 ft 294 kts 338°
2026-04-26 02:32 33.51088 -117.95530 10016 ft 284 kts 338°
2026-04-26 02:32 33.52956 -117.96213 10016 ft 279 kts 338°
2026-04-26 02:32 33.54807 -117.96886 10020 ft 279 kts 338°
2026-04-26 02:32 33.56672 -117.97566 10018 ft 280 kts 339°
2026-04-26 02:33 33.58537 -117.98246 10019 ft 281 kts 338°
2026-04-26 02:33 33.60419 -117.98929 10021 ft 284 kts 339°
2026-04-26 02:33 33.62316 -117.99625 10024 ft 287 kts 338°
2026-04-26 02:33 33.64231 -118.00319 10022 ft 289 kts 339°
2026-04-26 02:34 33.66161 -118.01028 10027 ft 291 kts 339°
2026-04-26 02:34 33.68102 -118.01731 9995 ft 292 kts 339°
2026-04-26 02:34 33.70039 -118.02444 9995 ft 291 kts 339°
2026-04-26 02:34 33.71954 -118.03139 9930 ft 286 kts 338°
2026-04-26 02:35 33.73869 -118.03844 9658 ft 289 kts 339°
2026-04-26 02:35 33.75808 -118.04553 9262 ft 294 kts 339°
2026-04-26 02:35 33.77768 -118.05271 8875 ft 296 kts 339°
2026-04-26 02:35 33.79649 -118.06225 8486 ft 289 kts 329°
2026-04-26 02:36 33.81428 -118.07271 8133 ft 281 kts 331°
2026-04-26 02:36 33.83160 -118.08244 8024 ft 267 kts 330°
2026-04-26 02:36 33.84791 -118.09174 8021 ft 254 kts 330°
2026-04-26 02:36 33.86344 -118.10071 8012 ft 242 kts 330°
2026-04-26 02:37 33.87836 -118.10930 8008 ft 233 kts 330°
2026-04-26 02:37 33.89271 -118.11756 8011 ft 223 kts 330°
2026-04-26 02:37 33.90621 -118.12533 8011 ft 208 kts 329°
2026-04-26 02:37 33.91891 -118.13260 8013 ft 197 kts 329°
2026-04-26 02:38 33.93108 -118.13964 7846 ft 196 kts 329°
2026-04-26 02:38 33.94367 -118.14696 7461 ft 205 kts 329°
2026-04-26 02:38 33.95232 -118.15195 7214 ft 210 kts 330°
2026-04-26 02:38 33.97003 -118.16214 6737 ft 217 kts 330°
2026-04-26 02:39 33.97932 -118.16746 6456 ft 215 kts 331°
2026-04-26 02:39 33.99611 -118.17793 5880 ft 197 kts 321°
2026-04-26 02:39 34.00856 -118.18402 5406 ft 199 kts 356°
2026-04-26 02:39 34.02222 -118.18099 4956 ft 200 kts 11°
2026-04-26 02:40 34.03583 -118.17710 4509 ft 202 kts 12°
2026-04-26 02:40 34.04504 -118.17439 4205 ft 203 kts 12°
2026-04-26 02:40 34.05848 -118.17046 4045 ft 191 kts 11°
2026-04-26 02:40 34.07088 -118.16683 4015 ft 176 kts 11°
2026-04-26 02:41 34.08242 -118.16334 3997 ft 170 kts 11°
2026-04-26 02:41 34.09405 -118.15986 3998 ft 174 kts 11°
2026-04-26 02:41 34.10587 -118.15924 3988 ft 174 kts 336°
2026-04-26 02:41 34.11601 -118.16717 3998 ft 172 kts 315°
2026-04-26 02:42 34.12229 -118.17923 4004 ft 172 kts 290°
2026-04-26 02:42 34.12698 -118.19264 4010 ft 175 kts 292°
2026-04-26 02:42 34.13187 -118.20594 4020 ft 177 kts 292°
2026-04-26 02:42 34.13707 -118.21967 4020 ft 178 kts 292°
2026-04-26 02:43 34.14744 -118.24689 4020 ft 181 kts 292°
2026-04-26 02:43 34.15183 -118.26102 4013 ft 180 kts 276°
2026-04-26 02:43 34.15037 -118.27576 4009 ft 177 kts 250°
2026-04-26 02:44 34.14377 -118.28827 3871 ft 180 kts 230°
2026-04-26 02:44 34.13584 -118.30022 3623 ft 184 kts 231°
2026-04-26 02:44 34.12772 -118.31235 3383 ft 187 kts 231°
2026-04-26 02:44 34.11953 -118.32466 3140 ft 189 kts 231°
2026-04-26 02:45 34.11148 -118.33679 3065 ft 182 kts 231°
2026-04-26 02:45 34.10323 -118.34772 3026 ft 171 kts 223°
2026-04-26 02:45 34.09500 -118.35725 2971 ft 148 kts 225°
2026-04-26 02:45 34.08851 -118.36507 2805 ft 120 kts 225°
2026-04-26 02:46 34.08295 -118.37210 2567 ft 112 kts 227°
2026-04-26 02:46 34.07759 -118.37880 2337 ft 111 kts 226°
2026-04-26 02:46 34.07207 -118.38532 2123 ft 111 kts 225°
2026-04-26 02:46 34.06674 -118.39177 1967 ft 107 kts 226°
2026-04-26 02:47 34.06143 -118.39816 1767 ft 108 kts 224°
2026-04-26 02:47 34.05608 -118.40449 1580 ft 108 kts 224°
2026-04-26 02:47 34.05051 -118.41080 1318 ft 110 kts 223°
2026-04-26 02:47 34.04489 -118.41722 1068 ft 110 kts 225°
2026-04-26 02:48 34.03942 -118.42361 846 ft 107 kts 225°
2026-04-26 02:48 34.03404 -118.42996 604 ft 106 kts 223°
2026-04-26 02:48 34.02879 -118.43606 410 ft 101 kts 225°
2026-04-26 02:48 34.02396 -118.44176 293 ft 94 kts 224°
2026-04-26 02:49 34.01938 -118.44714 179 ft 91 kts 224°
2026-04-26 02:49 34.01527 -118.45200 152 ft 57 kts 223°
2026-04-26 02:49 34.01364 -118.45387 147 ft 26 kts 228°
2026-04-26 02:49 34.01358 -118.45483 146 ft 0 kts 308°
2026-04-26 02:50 34.01366 -118.45487 146 ft 9 kts 353°
2026-04-26 02:50 34.01443 -118.45409 147 ft 28 kts 44°
2026-04-26 02:51 34.01573 -118.45270 152 ft 20 kts
2026-04-26 02:51 34.01619 -118.45277 152 ft 0 kts 39°